This is the latest recevied weather packets stored in our database for station/object DB5ZQ. If no packets are shown the sender has not sent any weather packets the latest 10 day(s).
| Time | Temp. | Humidity | Pressure | Rain* | Wind** | Luminosity | Snow |
|---|---|---|---|---|---|---|---|
| 1777910201 | 22.22° C | 49% | 1008.2 hPa | 0 mm | - | - | - |
| 1777909901 | 22.78° C | 49% | 1008.1 hPa | 0 mm | - | - | - |
| 1777909600 | 22.78° C | 49% | 1008.2 hPa | 0 mm | - | - | - |
| 1777909300 | 22.78° C | 49% | 1008.2 hPa | 0 mm | - | - | - |
| 1777909000 | 23.33° C | 48% | 1008.2 hPa | 0 mm | - | - | - |
| 1777908700 | 23.33° C | 47% | 1008.3 hPa | 0 mm | - | - | - |
| 1777908399 | 23.89° C | 47% | 1008.3 hPa | 0 mm | - | - | - |
| 1777908099 | 23.89° C | 46% | 1008.2 hPa | 0 mm | - | - | - |
| 1777907799 | 24.44° C | 44% | 1008.3 hPa | 0 mm | - | - | - |
| 1777907498 | 24.44° C | 42% | 1008.2 hPa | 0 mm | - | - | - |
| 1777907198 | 24.44° C | 42% | 1008.2 hPa | 0 mm | - | - | - |
| 1777906898 | 25° C | 41% | 1008.2 hPa | 0 mm | - | - | - |
| 1777906597 | 25° C | 41% | 1008.3 hPa | 0 mm | - | - | - |
| 1777906297 | 25° C | 41% | 1008.3 hPa | 0 mm | - | - | - |
| 1777905997 | 25° C | 41% | 1008.4 hPa | 0 mm | - | - | - |
| 1777905697 | 24.44° C | 42% | 1008.4 hPa | 0 mm | - | - | - |
| 1777905396 | 24.44° C | 42% | 1008.5 hPa | 0 mm | - | - | - |
| 1777905096 | 23.89° C | 43% | 1008.5 hPa | 0 mm | - | - | - |
| 1777904796 | 23.89° C | 44% | 1008.6 hPa | 0 mm | - | - | - |
| 1777904496 | 23.89° C | 44% | 1008.5 hPa | 0 mm | - | - | - |
| 1777904195 | 23.89° C | 44% | 1008.6 hPa | 0 mm | - | - | - |
| 1777903895 | 23.89° C | 44% | 1008.6 hPa | 0 mm | - | - | - |
| 1777903595 | 23.89° C | 44% | 1008.8 hPa | 0 mm | - | - | - |
| 1777903294 | 23.89° C | 44% | 1008.6 hPa | 0 mm | - | - | - |
| 1777902994 | 23.89° C | 43% | 1008.8 hPa | 0 mm | - | - | - |
* Rain latest hour (hover to see other rain measurements)
** Current wind speed in m/s (hover to see current wind gust speed)